• In Denmark
  • List of Countries
  • For 7 days
  • Water Temperature
  • Satellite Maps
  • Weather Map
  • Weather Widgets
  • user-avatar
    Login

    Hourly Weather Brisbane

    Today, 22 July, Saturday

    Time Temperature Precipitation Wind Pressure Humidity
    00:00 +10°C° 0 mm 2 mps 765 mmHg 60%
    01:00 +10°C° 0 mm 2 mps 765 mmHg 61%
    02:00 +9°C° 0 mm 2 mps 765 mmHg 62%
    03:00 +9°C° 0 mm 2 mps 765 mmHg 63%
    04:00 +9°C° 0 mm 3 mps 765 mmHg 66%
    05:00 +9°C° 0 mm 3 mps 765 mmHg 68%
    06:00 +9°C° 0 mm 3 mps 765 mmHg 71%
    07:00 +9°C° 0 mm 3 mps 766 mmHg 73%
    08:00 +13°C° 0 mm 2 mps 766 mmHg 65%
    09:00 +16°C° 0 mm 2 mps 766 mmHg 58%
    10:00 +19°C° 0 mm 2 mps 766 mmHg 50%
    11:00 +20°C° 0 mm 2 mps 765 mmHg 48%
    12:00 +21°C° 0 mm 2 mps 765 mmHg 45%
    13:00 +23°C° 0 mm 2 mps 764 mmHg 42%
    14:00 +23°C° 0 mm 2 mps 764 mmHg 45%
    15:00 +21°C° 0 mm 2 mps 764 mmHg 47%
    16:00 +21°C° 0 mm 2 mps 764 mmHg 49%
    17:00 +19°C° 0 mm 2 mps 764 mmHg 59%
    18:00 +17°C° 0 mm 2 mps 764 mmHg 69%
    19:00 +15°C° 0 mm 2 mps 764 mmHg 80%
    20:00 +15°C° 0 mm 2 mps 765 mmHg 82%
    21:00 +15°C° 0 mm 1 mps 765 mmHg 85%
    22:00 +14°C° 0 mm 1 mps 765 mmHg 88%
    23:00 +14°C° 0 mm 1 mps 765 mmHg 89%

    Tomorrow, 23 July, Sunday

    Time Temperature Precipitation Wind Pressure Humidity
    00:00 +13°C° 0 mm 1 mps 765 mmHg 90%
    01:00 +13°C° 0 mm 1 mps 765 mmHg 91%
    02:00 +13°C° 0 mm 1 mps 765 mmHg 92%
    03:00 +12°C° 0 mm 2 mps 764 mmHg 93%
    04:00 +12°C° 0 mm 2 mps 764 mmHg 93%
    05:00 +12°C° 0 mm 2 mps 765 mmHg 93%
    06:00 +12°C° 0 mm 2 mps 765 mmHg 92%
    07:00 +12°C° 0 mm 2 mps 765 mmHg 91%
    08:00 +14°C° 0 mm 2 mps 765 mmHg 80%
    09:00 +17°C° 0 mm 3 mps 765 mmHg 69%
    10:00 +20°C° 0 mm 3 mps 765 mmHg 58%
    11:00 +21°C° 0 mm 3 mps 765 mmHg 51%
    12:00 +22°C° 0 mm 3 mps 764 mmHg 43%
    13:00 +25°C° 0 mm 3 mps 763 mmHg 35%
    14:00 +25°C° 0 mm 3 mps 763 mmHg 36%
    15:00 +24°C° 0 mm 3 mps 762 mmHg 36%
    16:00 +24°C° 0 mm 3 mps 762 mmHg 37%
    17:00 +21°C° 0 mm 2 mps 762 mmHg 42%
    18:00 +19°C° 0 mm 2 mps 763 mmHg 48%
    19:00 +17°C° 0 mm 2 mps 763 mmHg 53%
    20:00 +16°C° 0 mm 2 mps 764 mmHg 51%
    21:00 +15°C° 0 mm 2 mps 764 mmHg 50%
    22:00 +14°C° 0 mm 2 mps 764 mmHg 48%
    23:00 +13°C° 0 mm 2 mps 764 mmHg 49%

    Day after tomorrow, 24 July, Monday

    Time Temperature Precipitation Wind Pressure Humidity
    00:00 +13°C° 0 mm 2 mps 764 mmHg 49%
    01:00 +12°C° 0 mm 2 mps 764 mmHg 49%
    02:00 +12°C° 0 mm 2 mps 764 mmHg 49%
    03:00 +12°C° 0 mm 2 mps 764 mmHg 48%
    04:00 +10°C° 0 mm 2 mps 763 mmHg 48%
    05:00 +10°C° 0 mm 2 mps 764 mmHg 48%
    06:00 +10°C° 0 mm 2 mps 764 mmHg 47%
    07:00 +10°C° 0 mm 2 mps 765 mmHg 47%
    08:00 +15°C° 0 mm 2 mps 765 mmHg 41%
    09:00 +18°C° 0 mm 2 mps 765 mmHg 36%
    10:00 +21°C° 0 mm 2 mps 765 mmHg 30%
    11:00 +24°C° 0 mm 1 mps 765 mmHg 28%
    12:00 +25°C° 0 mm 1 mps 764 mmHg 25%
    13:00 +27°C° 0 mm 1 mps 763 mmHg 22%
    14:00 +26°C° 0 mm 1 mps 763 mmHg 25%
    15:00 +26°C° 0 mm 2 mps 763 mmHg 28%
    16:00 +25°C° 0 mm 2 mps 763 mmHg 30%
    17:00 +23°C° 0 mm 2 mps 763 mmHg 37%
    18:00 +19°C° 0 mm 2 mps 764 mmHg 44%
    19:00 +18°C° 0 mm 1 mps 765 mmHg 50%
    20:00 +16°C° 0 mm 1 mps 765 mmHg 52%
    21:00 +15°C° 0 mm 1 mps 765 mmHg 55%
    22:00 +15°C° 0 mm 1 mps 766 mmHg 57%
    23:00 +14°C° 0 mm 2 mps 765 mmHg 57%

    25 July, Tuesday

    Time Temperature Precipitation Wind Pressure Humidity
    00:00 +14°C° 0 mm 2 mps 765 mmHg 57%
    01:00 +13°C° 0 mm 2 mps 765 mmHg 57%
    02:00 +13°C° 0 mm 2 mps 765 mmHg 57%
    03:00 +12°C° 0 mm 2 mps 765 mmHg 56%
    04:00 +12°C° 0 mm 2 mps 765 mmHg 56%
    05:00 +12°C° 0 mm 2 mps 765 mmHg 56%
    06:00 +12°C° 0 mm 2 mps 766 mmHg 56%
    07:00 +12°C° 0 mm 2 mps 766 mmHg 56%
    08:00 +15°C° 0 mm 2 mps 766 mmHg 48%
    09:00 +18°C° 0 mm 2 mps 767 mmHg 41%
    10:00 +22°C° 0 mm 1 mps 767 mmHg 34%
    11:00 +23°C° 0 mm 1 mps 766 mmHg 31%
    12:00 +25°C° 0 mm 1 mps 765 mmHg 28%
    13:00 +26°C° 0 mm 1 mps 765 mmHg 25%
    14:00 +25°C° 0 mm 1 mps 764 mmHg 27%
    15:00 +24°C° 0 mm 2 mps 764 mmHg 30%
    16:00 +24°C° 0 mm 2 mps 764 mmHg 33%
    17:00 +20°C° 0 mm 2 mps 764 mmHg 42%
    18:00 +18°C° 0 mm 2 mps 765 mmHg 52%
    19:00 +16°C° 0 mm 1 mps 765 mmHg 62%
    20:00 +15°C° 0 mm 1 mps 766 mmHg 66%
    21:00 +15°C° 0 mm 1 mps 766 mmHg 70%
    22:00 +14°C° 0 mm 1 mps 766 mmHg 74%
    23:00 +13°C° 0 mm 1 mps 766 mmHg 74%

    26 July, Wednesday

    Time Temperature Precipitation Wind Pressure Humidity
    00:00 +13°C° 0 mm 1 mps 766 mmHg 74%
    01:00 +13°C° 0 mm 2 mps 765 mmHg 74%
    02:00 +12°C° 0 mm 2 mps 765 mmHg 72%
    03:00 +12°C° 0 mm 2 mps 765 mmHg 69%
    04:00 +10°C° 0 mm 2 mps 765 mmHg 67%
    05:00 +10°C° 0 mm 2 mps 765 mmHg 64%
    06:00 +10°C° 0 mm 2 mps 766 mmHg 61%
    07:00 +10°C° 0 mm 2 mps 766 mmHg 59%
    08:00 +15°C° 0 mm 2 mps 766 mmHg 51%
    09:00 +18°C° 0 mm 2 mps 766 mmHg 42%
    10:00 +22°C° 0 mm 1 mps 766 mmHg 34%
    11:00 +24°C° 0 mm 1 mps 765 mmHg 31%
    12:00 +25°C° 0 mm 1 mps 764 mmHg 28%
    13:00 +27°C° 0 mm 1 mps 763 mmHg 25%
    14:00 +26°C° 0 mm 1 mps 763 mmHg 28%
    15:00 +26°C° 0 mm 2 mps 763 mmHg 31%
    16:00 +25°C° 0 mm 3 mps 763 mmHg 34%
    17:00 +22°C° 0 mm 3 mps 763 mmHg 40%
    18:00 +20°C° 0 mm 3 mps 764 mmHg 47%
    19:00 +18°C° 0 mm 3 mps 764 mmHg 54%
    20:00 +17°C° 0 mm 2 mps 764 mmHg 54%
    21:00 +16°C° 0 mm 2 mps 764 mmHg 54%
    22:00 +16°C° 0 mm 2 mps 764 mmHg 55%
    23:00 +15°C° 0 mm 2 mps 764 mmHg 55%

    27 July, Thursday

    Time Temperature Precipitation Wind Pressure Humidity
    00:00 +15°C° 0 mm 2 mps 764 mmHg 55%
    01:00 +15°C° 0 mm 2 mps 763 mmHg 55%
    02:00 +15°C° 0 mm 2 mps 763 mmHg 55%
    03:00 +14°C° 0 mm 3 mps 763 mmHg 55%
    04:00 +14°C° 0 mm 3 mps 763 mmHg 55%
    05:00 +13°C° 0 mm 3 mps 764 mmHg 56%
    06:00 +13°C° 0 mm 3 mps 764 mmHg 56%
    07:00 +13°C° 0 mm 4 mps 765 mmHg 57%
    08:00 +15°C° 0 mm 4 mps 765 mmHg 49%
    09:00 +18°C° 0 mm 4 mps 765 mmHg 41%
    10:00 +21°C° 0 mm 4 mps 765 mmHg 32%
    11:00 +21°C° 0 mm 4 mps 765 mmHg 28%
    12:00 +22°C° 0 mm 4 mps 764 mmHg 24%
    13:00 +23°C° 0 mm 4 mps 763 mmHg 20%
    14:00 +23°C° 0 mm 4 mps 764 mmHg 22%
    15:00 +22°C° 0 mm 4 mps 764 mmHg 25%
    16:00 +22°C° 0 mm 4 mps 764 mmHg 27%
    17:00 +20°C° 0 mm 4 mps 765 mmHg 36%
    18:00 +18°C° 0 mm 4 mps 765 mmHg 44%
    19:00 +14°C° 0 mm 4 mps 766 mmHg 52%
    20:00 +14°C° 0 mm 4 mps 766 mmHg 57%
    21:00 +13°C° 0 mm 4 mps 767 mmHg 61%
    22:00 +12°C° 0 mm 4 mps 767 mmHg 66%
    23:00 +12°C° 0 mm 3 mps 767 mmHg 68%
    Show more